Aktuell
News
Messwerte
Diagramme
Archiv
Wettervorhersage
Regen
Wettergefahren

Astro & Geo
Health
Pegel
Gästebuch
Kontakt
Impressum
Datenschutz
App

Leicht bewölkt bei 12.2 °C – Luftdruck: 1038.1 hPa – Wind: NO 1.4 km/h
Messwerte von 16:37 Uhr; Warnsymbol: Datenbasis DWD; Wetterzustand powered by
Übersicht
Heute
Gestern
Vor 1 Jahr
Info
Heute – Der Tag im Rückblick
 
Messwerte von Samstag, 27.02.2021
Symbol
Zeitpunkt
Wetter-
zustand
Zeitpunkt
Temperatur
gefühlt
Zeitpunkt
Luftfeuchte
Taupunkt
Zeitpunkt
Luftdruck
Zeitpunkt
Wind
Zeitpunkt
Windböen
Max 15 Min.
Wind-
richtung
Zeitpunkt
Regen
Summe 1 h
Regenrate
Max 15 Min.
UV-Index
Max 15 Min.
Pegel Köln
Zeitpunkt
Warnlage
Zeitpunkt
00:15 Wolkenlos2 5.1 °C
3.7 °C
82 %
2.1 °C
1037.0 hPa 6.5 km/h
2 Bft
11.2 km/h
2 Bft
WNW -
0.0 mm/h
0.0 334 cm
00:30 Wolkenlos2 4.8 °C
4.7 °C
83 %
2.1 °C
1037.1 hPa 3.2 km/h
1 Bft
9.7 km/h
2 Bft
NW -
0.0 mm/h
0.0 333 cm
00:45 Wolkenlos2 4.2 °C
4.2 °C
83 %
1.5 °C
1037.2 hPa 1.4 km/h
1 Bft
6.5 km/h
2 Bft
NW -
0.0 mm/h
0.0 334 cm
01:00 Wolkenlos2 4.1 °C
3.9 °C
84 %
1.6 °C
1037.4 hPa 1.4 km/h
1 Bft
3.2 km/h
1 Bft
NW 0.00 mm
0.0 mm/h
0.0 332 cm
01:15 Wolkenlos2 3.8 °C
3.8 °C
85 %
1.4 °C
1037.4 hPa 1.4 km/h
1 Bft
6.5 km/h
2 Bft
NW -
0.0 mm/h
0.0 331 cm
01:30 Wolkenlos3 3.7 °C
3.7 °C
86 %
1.5 °C
1037.4 hPa 1.4 km/h
1 Bft
4.7 km/h
1 Bft
NW -
0.0 mm/h
0.0 331 cm
01:45 Wolkenlos3 3.7 °C
3.7 °C
86 %
1.5 °C
1037.5 hPa 0.0 km/h
0 Bft
3.2 km/h
1 Bft
NW -
0.0 mm/h
0.0 332 cm
02:00 Leicht bewölkt3 3.5 °C
3.5 °C
87 %
1.5 °C
1037.7 hPa 0.0 km/h
0 Bft
3.2 km/h
1 Bft
NW 0.00 mm
0.0 mm/h
0.0 331 cm
02:15 Leicht bewölkt3 3.3 °C
3.3 °C
87 %
1.3 °C
1037.7 hPa 0.0 km/h
0 Bft
0.0 km/h
0 Bft
NW -
0.0 mm/h
0.0 331 cm
02:30 Wolkig3 3.2 °C
3.2 °C
87 %
1.2 °C
1037.7 hPa 1.4 km/h
1 Bft
3.2 km/h
1 Bft
NW -
0.0 mm/h
0.0 332 cm
02:45 Wolkig3 3.2 °C
3.2 °C
88 %
1.3 °C
1037.7 hPa 1.4 km/h
1 Bft
3.2 km/h
1 Bft
NW -
0.0 mm/h
0.0 330 cm
03:00 Wolkig3 3.2 °C
2.9 °C
88 %
1.3 °C
1037.6 hPa 1.4 km/h
1 Bft
3.2 km/h
1 Bft
NW 0.00 mm
0.0 mm/h
0.0 331 cm
03:15 Stark bewölkt3 3.5 °C
3.5 °C
89 %
1.8 °C
1037.7 hPa 1.4 km/h
1 Bft
6.5 km/h
2 Bft
NNO -
0.0 mm/h
0.0 331 cm
03:30 Stark bewölkt3 3.6 °C
3.4 °C
90 %
2.1 °C
1037.8 hPa 3.2 km/h
1 Bft
7.9 km/h
2 Bft
NNW -
0.0 mm/h
0.0 330 cm
03:45 Bedeckt2 3.5 °C
3.3 °C
90 %
2.0 °C
1037.7 hPa 4.7 km/h
1 Bft
9.7 km/h
2 Bft
NNW -
0.0 mm/h
0.0 330 cm
04:00 Bedeckt2 3.6 °C
2.6 °C
91 %
2.1 °C
1037.8 hPa 4.7 km/h
1 Bft
9.7 km/h
2 Bft
NW 0.00 mm
0.0 mm/h
0.0 331 cm
04:15 Bedeckt2 3.6 °C
3.6 °C
91 %
2.1 °C
1037.9 hPa 4.7 km/h
1 Bft
9.7 km/h
2 Bft
NNW -
0.0 mm/h
0.0 330 cm
04:30 Bedeckt2 3.6 °C
2.1 °C
91 %
2.1 °C
1038.1 hPa 3.2 km/h
1 Bft
7.9 km/h
2 Bft
NW -
0.0 mm/h
0.0 330 cm
04:45 Bedeckt2 3.6 °C
2.6 °C
91 %
2.1 °C
1038.1 hPa 4.7 km/h
1 Bft
7.9 km/h
2 Bft
NW -
0.0 mm/h
0.0 330 cm
05:00 Bedeckt2 3.5 °C
3.3 °C
91 %
2.1 °C
1038.2 hPa 3.2 km/h
1 Bft
7.9 km/h
2 Bft
NW 0.00 mm
0.0 mm/h
0.0 330 cm
05:15 Bedeckt2 3.5 °C
2.5 °C
91 %
2.1 °C
1038.4 hPa 3.2 km/h
1 Bft
7.9 km/h
2 Bft
NW -
0.0 mm/h
0.0 330 cm
05:30 Bedeckt2 3.6 °C
3.4 °C
91 %
2.1 °C
1038.5 hPa 3.2 km/h
1 Bft
9.7 km/h
2 Bft
NNW -
0.0 mm/h
0.0 330 cm
05:45 Bedeckt2 3.6 °C
2.6 °C
91 %
2.1 °C
1038.6 hPa 3.2 km/h
1 Bft
9.7 km/h
2 Bft
NNW -
0.0 mm/h
0.0 330 cm
06:00 Bedeckt2 3.6 °C
3.6 °C
90 %
2.1 °C
1038.7 hPa 3.2 km/h
1 Bft
7.9 km/h
2 Bft
NW 0.00 mm
0.0 mm/h
0.0 330 cm
06:15 Bedeckt2 3.8 °C
3.6 °C
89 %
2.1 °C
1038.8 hPa 1.4 km/h
1 Bft
6.5 km/h
2 Bft
N -
0.0 mm/h
0.0 330 cm
06:30 Bedeckt2 4.0 °C
2.4 °C
88 %
2.1 °C
1038.8 hPa 1.4 km/h
1 Bft
7.9 km/h
2 Bft
NO -
0.0 mm/h
0.0 329 cm
06:45 Bedeckt2 4.1 °C
4.1 °C
87 %
2.1 °C
1038.9 hPa 1.4 km/h
1 Bft
7.9 km/h
2 Bft
NO -
0.0 mm/h
0.0 330 cm
07:00 Bedeckt2 4.0 °C
4.0 °C
87 %
2.0 °C
1038.9 hPa 0.0 km/h
0 Bft
3.2 km/h
1 Bft
NO 0.00 mm
0.0 mm/h
0.0 329 cm
07:15 Bedeckt2 4.0 °C
4.0 °C
87 %
2.0 °C
1039.0 hPa 1.4 km/h
1 Bft
3.2 km/h
1 Bft
NNO -
0.0 mm/h
0.0 329 cm
07:30 Bedeckt2 4.2 °C
4.2 °C
86 %
2.0 °C
1039.0 hPa 0.0 km/h
0 Bft
4.7 km/h
1 Bft
N -
0.0 mm/h
0.0 327 cm
07:45 Bedeckt2 4.1 °C
4.1 °C
86 %
1.9 °C
1039.2 hPa 3.2 km/h
1 Bft
4.7 km/h
1 Bft
NW -
0.0 mm/h
0.0 327 cm
08:00 Bedeckt2 4.1 °C
2.5 °C
86 %
1.9 °C
1039.5 hPa 4.7 km/h
1 Bft
6.5 km/h
2 Bft
NNW 0.00 mm
0.0 mm/h
0.0 327 cm
08:15 Bedeckt2 4.2 °C
3.3 °C
85 %
1.8 °C
1039.6 hPa 3.2 km/h
1 Bft
7.9 km/h
2 Bft
NNW -
0.0 mm/h
0.0 327 cm
08:30 Stark bewölkt2 4.2 °C
4.2 °C
86 %
2.0 °C
1039.8 hPa 3.2 km/h
1 Bft
7.9 km/h
2 Bft
WNW -
0.0 mm/h
0.0 327 cm
08:45 Stark bewölkt3 4.3 °C
2.8 °C
86 %
2.1 °C
1039.8 hPa 1.4 km/h
1 Bft
4.7 km/h
1 Bft
NNW -
0.0 mm/h
0.0 328 cm
09:00 Stark bewölkt3 4.3 °C
4.3 °C
85 %
1.9 °C
1039.8 hPa 3.2 km/h
1 Bft
6.5 km/h
2 Bft
NW 0.00 mm
0.0 mm/h
0.0 327 cm
09:15 Bedeckt2 4.3 °C
4.3 °C
85 %
1.9 °C
1039.9 hPa 3.2 km/h
1 Bft
7.9 km/h
2 Bft
NW -
0.0 mm/h
0.0 327 cm
09:30 Bedeckt2 4.5 °C
4.4 °C
84 %
2.0 °C
1040.2 hPa 3.2 km/h
1 Bft
6.5 km/h
2 Bft
NNW -
0.0 mm/h
0.0 327 cm
09:45 Bedeckt2 4.6 °C
3.8 °C
83 %
1.9 °C
1040.1 hPa 4.7 km/h
1 Bft
7.9 km/h
2 Bft
NW -
0.0 mm/h
0.0 327 cm
10:00 Bedeckt2 4.6 °C
4.6 °C
82 %
1.7 °C
1040.1 hPa 3.2 km/h
1 Bft
6.5 km/h
2 Bft
NNW 0.00 mm
0.0 mm/h
0.8 327 cm
10:15 Stark bewölkt2 5.1 °C
4.3 °C
80 %
1.9 °C
1040.3 hPa 3.2 km/h
1 Bft
14.4 km/h
3 Bft
NNW -
0.0 mm/h
0.9 327 cm
10:30 Stark bewölkt2 5.3 °C
5.3 °C
81 %
2.1 °C
1040.4 hPa 4.7 km/h
1 Bft
11.2 km/h
2 Bft
NNO -
0.0 mm/h
0.9 327 cm
10:45 Stark bewölkt2 5.5 °C
4.2 °C
79 %
2.1 °C
1040.4 hPa 3.2 km/h
1 Bft
7.9 km/h
2 Bft
NW -
0.0 mm/h
1.1 327 cm
11:00 Stark bewölkt2 5.3 °C
5.3 °C
81 %
2.1 °C
1040.4 hPa 4.7 km/h
1 Bft
13.0 km/h
3 Bft
NNW 0.00 mm
0.0 mm/h
1.1 327 cm
11:15 Stark bewölkt2 5.3 °C
5.3 °C
80 %
2.1 °C
1040.5 hPa 3.2 km/h
1 Bft
7.9 km/h
2 Bft
NNW -
0.0 mm/h
1.4 327 cm
11:30 Stark bewölkt2 5.3 °C
5.2 °C
80 %
2.1 °C
1040.4 hPa 4.7 km/h
1 Bft
13.0 km/h
3 Bft
NNW -
0.0 mm/h
1.7 327 cm
11:45 Stark bewölkt2 5.9 °C
5.9 °C
78 %
2.2 °C
1040.4 hPa 4.7 km/h
1 Bft
13.0 km/h
3 Bft
NNW -
0.0 mm/h
1.9 326 cm
12:00 Stark bewölkt3 6.4 °C
6.4 °C
76 %
2.3 °C
1040.5 hPa 3.2 km/h
1 Bft
7.9 km/h
2 Bft
WSW 0.00 mm
0.0 mm/h
2.1 327 cm
12:15 Wolkig2 6.8 °C
6.8 °C
76 %
2.8 °C
1040.4 hPa 3.2 km/h
1 Bft
7.9 km/h
2 Bft
N -
0.0 mm/h
2.2 327 cm
12:30 Leicht bewölkt2 7.6 °C
6.3 °C
73 %
3.0 °C
1040.2 hPa 3.2 km/h
1 Bft
9.7 km/h
2 Bft
NNW -
0.0 mm/h
2.3 327 cm
12:45 Leicht bewölkt2 7.1 °C
7.1 °C
73 %
2.5 °C
1040.1 hPa 3.2 km/h
1 Bft
9.7 km/h
2 Bft
NNW -
0.0 mm/h
2.2 327 cm
13:00 Leicht bewölkt2 7.7 °C
7.7 °C
70 %
2.5 °C
1040.0 hPa 3.2 km/h
1 Bft
7.9 km/h
2 Bft
N 0.00 mm
0.0 mm/h
2.1 326 cm
13:15 Leicht bewölkt2 8.6 °C
7.8 °C
67 %
2.7 °C
1039.8 hPa 4.7 km/h
1 Bft
13.0 km/h
3 Bft
N -
0.0 mm/h
2.2 327 cm
13:30 Leicht bewölkt2 9.7 °C
9.7 °C
65 %
3.3 °C
1039.7 hPa 1.4 km/h
1 Bft
9.7 km/h
2 Bft
N -
0.0 mm/h
2.1 327 cm
13:45 Leicht bewölkt2 8.9 °C
8.6 °C
67 %
3.0 °C
1039.6 hPa 4.7 km/h
1 Bft
13.0 km/h
3 Bft
N -
0.0 mm/h
2.1 327 cm
14:00 Wolkig2 9.0 °C
8.2 °C
68 %
3.3 °C
1039.4 hPa 4.7 km/h
1 Bft
14.4 km/h
3 Bft
NNW 0.00 mm
0.0 mm/h
1.9 327 cm
14:15 Wolkig2 9.3 °C
8.2 °C
65 %
2.9 °C
1039.3 hPa 6.5 km/h
2 Bft
16.2 km/h
3 Bft
NW -
0.0 mm/h
1.7 327 cm
14:30 Leicht bewölkt2 9.8 °C
9.8 °C
65 %
3.4 °C
1039.0 hPa 6.5 km/h
2 Bft
14.4 km/h
3 Bft
NNW -
0.0 mm/h
1.7 327 cm
14:45 Leicht bewölkt2 10.1 °C
10.1 °C
63 %
3.2 °C
1038.9 hPa 4.7 km/h
1 Bft
14.4 km/h
3 Bft
NNW -
0.0 mm/h
1.6 327 cm
15:00 Leicht bewölkt2 10.2 °C
10.2 °C
63 %
3.3 °C
1038.6 hPa 6.5 km/h
2 Bft
16.2 km/h
3 Bft
WNW 0.00 mm
0.0 mm/h
1.5 327 cm
15:15 Leicht bewölkt2 9.9 °C
9.3 °C
65 %
3.5 °C
1038.5 hPa 6.5 km/h
2 Bft
14.4 km/h
3 Bft
NNW -
0.0 mm/h
1.4 326 cm
15:30 Leicht bewölkt2 10.5 °C
10.5 °C
62 %
3.4 °C
1038.5 hPa 7.9 km/h
2 Bft
17.6 km/h
3 Bft
NNO -
0.0 mm/h
1.3 326 cm
15:45 Sonnig2 10.2 °C
10.2 °C
63 %
3.3 °C
1038.4 hPa 7.9 km/h
2 Bft
16.2 km/h
3 Bft
W -
0.0 mm/h
1.2 327 cm
16:00 Leicht bewölkt2 11.3 °C
11.3 °C
59 %
3.5 °C
1038.2 hPa 7.9 km/h
2 Bft
22.7 km/h
4 Bft
NNW 0.00 mm
0.0 mm/h
1.0 326 cm
16:15 Leicht bewölkt2 12.0 °C
12.0 °C
57 %
3.7 °C
1038.1 hPa 6.5 km/h
2 Bft
14.4 km/h
3 Bft
NNO -
0.0 mm/h
0.9 327 cm
16:30 Leicht bewölkt2 12.1 °C
12.1 °C
56 %
3.5 °C
1038.1 hPa 7.9 km/h
2 Bft
17.6 km/h
3 Bft
NNO -
0.0 mm/h
0.8 326 cm




-
-- cm





-- cm




-
-- cm




-
-- cm




-
-- cm





-- cm




-
-- cm




-
-- cm




-
-- cm





-- cm




-
-- cm




-
-- cm




-
-- cm





-- cm




-
-- cm




-
-- cm




-
-- cm





-- cm




-
-- cm




-
-- cm




-
-- cm





-- cm




-
-- cm




-
-- cm




-
-- cm





-- cm




-
-- cm




-
-- cm




-
-- cm





-- cm
Messwerte stehen ab 00:15 Uhr zur Verfügung.
Aus technischen Gründen wird die Niederschlagssumme der vorangegangenen Stunde erst um :30 der Folgestunde aktualisiert. Die Pegelstände werden ab 01:45 Uhr 15 Minuten zeitversetzt aktualisiert. Datenbasis Wetterzustand: ¹ Wetterstation Köln-Nippes (Stellwerk), ² powered by , ³ powered by OpenWeatherMap, CC BY-SA 4.0; Warnlage: DWD, Pegelonline, LANUV; Pegel Köln: Pegelonline
 
Extrem- und Durchschnittswerte
  Temperatur Luftfeuchte Luftdruck Wind Windböen Wind-
richtung
Regen UV-Index Pegel Köln KKT
Min

Max

Ø
3.1 °C
02:42 Uhr
12.3 °C
16:06 Uhr
6.1 °C
56.0 %
16:16 Uhr
91.0 %
03:48 Uhr
78.6 %
1036.8 hPa
00:00 Uhr
1040.5 hPa
10:52 Uhr
1038.9 hPa
 
 
9.7 km/h
15:36 Uhr
3.7 km/h
 
 
22.7 km/h
15:49 Uhr
 
 
 
NNW
 
 
 
 
0.00 mm
 
 
 
 
2.3
12:12 Uhr
 
326 cm
11:45 Uhr
334 cm
00:15 Uhr
 
  gefühlt Taupunkt   Wind Windböen   Regenrate Ozon Sonne Mond
Min

Max

Ø
1.1 °C
03:44 Uhr
12.3 °C
16:06 Uhr
 
1.2 °C
02:27 Uhr
4.5 °C
16:04 Uhr
2.4 °C
   
 
2 Bft
15:36 Uhr
3.7 km/h
 
 
4 Bft
15:49 Uhr
 
   
 
0.0 mm/h
00:00 Uhr
 
 
Chorweiler
59 μg/m³
15:00 Uhr
 
▲ 07:20 Uhr
▼ 18:10 Uhr
▼ 07:55 Uhr
▲ 18:19 Uhr
KKT = Klimatologischer Kenntag: ET = Eistag, FT = Frosttag, KT = Kalter Tag, ST = Sommertag, HT = Hitzetag, TN = Tropennacht, NT = Niederschlagstag, SH = Schneehöhe (Max Tag); Datenbasis Ozon: LANUV, Land NRW, dl-de/by-2-0
 
Detaillierte Warnlage
FROST
27.02.21, 00:00 Uhr bis 08:00 Uhr
Vor allem bei Aufklaren tritt leichter Frost um -1 °C auf. In Bodennähe wird leichter Frost um -4 °C erwartet.















27.02.21

27.02.21

27.02.21

27.02.21

27.02.21

27.02.21

27.02.21
Datenbasis: DWD, Pegelonline, LANUV